EHI
4 6 5 2 1 3 5 7 10 12 11 9 7 7 7 4 2 4 9 16 20 21 20 15 11 10 11 11 9 8 9 10 9 5 2 0 0 1 1 1 2 3 3
4 5 4 2 2 3 6 9 10 10 9 7 6 6 6 4 3 4 6 11 17 21 20 15 12 11 11 11 10 9 11 13 11 8 4 2 2 2 3 3 3 3 3
5 4 3 3 4 5 7 9 9 8 5 4 4 5 5 5 5 5 6 7 12 17 18 17 16 15 14 13 13 13 13 14 13 9 6 5 5 5 5 4 3 3 3
7 5 5 6 6 5 6 7 8 7 5 4 4 4 4 6 7 7 7 8 10 11 15 18 19 19 18 17 17 17 16 14 11 8 6 6 6 6 6 4 2 2 2
7 7 7 8 7 6 6 7 8 8 7 6 5 4 3 4 6 6 7 7 8 10 12 15 16 17 19 19 20 20 19 15 10 7 6 5 6 7 6 4 1 1 1
4 5 6 7 6 6 8 8 9 8 7 6 4 3 2 2 4 5 5 5 6 9 12 13 14 14 16 18 19 20 20 17 12 9 7 6 6 7 7 5 2 1 0
5 5 4 5 6 8 8 9 8 7 5 4 3 3 3 3 3 4 4 4 5 8 12 14 16 16 15 16 16 17 18 17 15 13 11 8 6 6 6 5 3 1 1
8 6 5 6 8 8 7 7 7 5 3 2 3 4 5 4 3 3 4 5 5 8 10 12 16 17 16 15 15 16 17 18 17 15 12 9 6 5 5 5 4 3 3
11 10 9 8 8 7 5 5 4 4 3 2 4 5 6 6 5 4 4 5 6 7 7 8 12 17 19 19 17 16 17 17 16 14 12 9 6 6 6 6 5 5 5
16 16 13 10 8 8 5 3 3 3 4 4 4 5 6 7 8 6 5 5 7 7 7 6 10 17 22 22 19 17 16 14 12 12 11 9 7 6 6 6 6 6 6
22 19 15 12 9 8 6 4 4 5 6 6 6 6 7 7 8 7 5 6 8 9 10 10 12 17 21 21 18 15 13 10 7 7 8 7 5 5 5 5 5 5 5
21 19 17 15 12 8 7 6 7 7 7 7 8 9 8 7 6 7 6 6 7 8 10 12 13 15 18 18 15 13 11 7 3 2 3 2 2 2 3 4 4 3 2
18 19 20 20 17 12 10 10 10 8 7 7 8 9 9 7 6 7 7 6 6 6 8 10 12 13 15 16 15 13 10 5 1 0 0 0 0 0 1 2 3 2 1
17 21 25 25 22 17 13 12 11 10 9 7 7 8 9 9 8 9 10 9 7 6 8 10 11 11 12 15 15 14 10 4 0 0 0 0 0 0 0 1 1 1 0
20 24 29 29 27 21 17 16 14 12 12 11 9 8 9 9 9 10 11 13 11 8 9 12 11 10 10 12 13 14 12 6 1 0 0 0 0 0 0 0 0 0 0
26 29 32 32 29 24 21 21 19 16 15 15 13 11 10 9 8 9 11 14 14 12 11 13 11 8 9 10 11 14 13 8 3 1 1 0 0 0 0 0 0 0 0
31 33 35 33 29 25 24 25 24 20 18 17 15 14 12 10 9 10 10 11 13 14 13 12 10 8 8 9 11 12 11 9 7 4 2 0 0 0 0 0 0 0 0
34 33 33 32 28 24 24 25 24 21 18 18 18 17 14 12 11 10 9 9 10 12 12 11 9 8 8 10 12 12 10 9 8 5 2 0 0 0 0 0 0 0 0
31 29 28 28 25 22 22 23 22 21 19 20 22 20 16 13 11 9 9 9 10 11 10 9 8 8 8 10 12 12 10 10 8 5 2 0 0 0 0 0 0 0 0
28 26 24 24 23 21 21 21 20 19 18 20 21 20 16 13 11 9 8 9 10 10 8 6 6 7 8 10 11 11 10 10 9 7 4 2 1 0 0 0 0 0 0
26 25 24 23 21 19 17 17 17 16 16 19 21 19 14 11 10 8 7 7 7 8 7 7 6 7 9 10 10 10 10 9 9 9 8 5 2 1 1 1 0 0 0
25 25 24 22 19 16 13 12 13 13 15 18 19 16 10 7 6 6 5 4 4 5 6 7 8 7 7 9 10 9 9 9 9 10 10 7 3 3 2 1 0 0 0
27 27 24 20 17 14 10 8 8 10 12 14 14 11 7 4 5 6 5 4 5 4 4 6 7 6 6 7 9 9 9 8 9 9 9 7 5 4 3 2 0 0 0
29 27 23 19 16 11 7 5 6 8 11 12 11 9 7 5 6 7 8 7 7 5 4 4 5 5 5 6 7 8 8 8 8 9 9 7 5 4 4 2 1 0 0
30 25 20 18 15 10 6 4 5 8 11 13 13 11 9 7 6 6 8 8 8 7 5 4 5 5 5 6 6 7 8 8 8 9 9 7 5 4 4 3 1 0 0
29 22 17 17 15 11 6 4 5 9 13 15 15 13 9 6 5 5 6 8 9 7 6 5 6 6 6 6 5 7 9 9 9 9 9 7 5 3 3 2 1 1 0
Wind_Speed
2 2 2 2 1 1 1 1 1 1 1 1 1 1 2 2 1 1 3 7 8 9 8 8 8 9 9 9 9 10 11 10 9 9 9 9 8 8 8 7 7 7 7
2 2 2 1 2 1 1 1 1 1 1 1 0 0 1 1 2 2 3 4 6 7 7 7 8 8 9 10 10 10 10 10 10 9 9 9 8 9 8 8 8 8 7
2 2 1 1 2 1 1 1 1 1 0 1 1 1 1 1 1 3 3 3 3 5 6 7 7 8 9 10 10 10 10 9 9 9 9 9 9 9 9 9 9 9 8
2 1 1 2 2 2 1 1 1 1 1 0 1 1 1 2 2 2 3 3 3 3 5 7 6 6 8 10 10 10 10 9 9 9 9 9 9 9 9 9 9 9 8
2 1 2 2 1 1 2 2 2 1 1 0 1 1 1 1 1 2 2 3 4 3 3 6 7 6 7 8 9 10 10 10 9 9 9 10 9 9 8 9 9 9 9
2 2 1 1 2 2 2 2 1 1 1 1 1 1 2 2 2 2 2 2 3 4 4 5 4 5 7 8 8 9 9 9 9 8 8 8 9 9 9 9 9 10 9
2 1 2 1 1 2 2 2 1 1 1 0 1 1 1 2 2 2 2 2 2 3 4 5 4 3 4 7 7 7 8 8 8 7 7 7 7 8 9 10 10 10 10
2 1 1 1 1 1 2 1 1 2 1 0 0 1 0 0 1 2 3 3 2 2 3 5 4 4 4 4 5 9 9 8 8 8 8 7 7 7 8 8 8 9 10
2 2 2 1 1 1 1 0 1 1 2 1 0 0 0 1 1 0 2 2 3 2 2 2 4 5 5 4 4 7 9 9 9 9 8 8 7 7 7 8 8 8 8
2 2 1 1 1 2 2 1 2 2 2 2 1 0 1 0 0 1 1 1 2 2 2 1 2 3 3 3 4 6 9 9 8 9 8 8 8 7 8 8 9 9 8
2 2 2 1 1 1 2 2 2 2 2 2 2 2 1 1 1 1 1 1 1 1 2 2 1 2 3 3 3 5 8 9 8 7 7 7 7 7 8 8 9 9 9
2 2 2 1 1 1 1 1 1 1 2 3 3 3 2 1 1 1 1 2 1 1 1 1 1 2 2 2 3 6 8 8 8 7 6 6 6 7 7 8 9 9 9
2 2 2 1 0 0 1 0 0 1 1 2 2 3 3 2 2 1 1 2 2 1 0 1 1 1 1 2 3 6 7 8 8 7 6 6 6 6 6 7 7 8 9
2 3 2 2 1 0 0 0 0 1 1 2 2 2 2 2 2 1 1 1 2 2 1 1 0 1 1 1 3 5 4 7 7 7 7 6 5 5 5 5 6 6 6
2 3 2 2 1 1 0 0 0 1 1 1 2 2 2 2 2 2 1 1 1 2 2 1 0 1 1 1 3 2 2 6 7 8 8 7 6 6 5 5 5 5 5
1 2 2 2 2 1 1 1 1 1 1 1 1 1 2 3 2 2 2 1 1 1 2 1 1 0 1 1 2 1 2 5 8 9 9 8 8 8 7 6 5 5 5
2 2 2 2 2 1 1 1 2 1 1 2 2 2 2 2 2 2 2 2 1 1 2 2 1 1 1 2 1 2 2 3 4 8 9 9 9 9 8 7 7 6 6
2 2 2 1 2 1 1 2 2 2 2 2 2 2 2 2 2 2 2 2 2 1 1 2 2 2 2 2 1 2 3 3 2 6 10 10 9 9 9 8 8 7 6
2 2 2 2 2 1 1 2 2 2 3 3 2 2 2 2 2 2 2 2 2 2 1 2 2 2 2 1 1 2 3 2 3 3 7 8 9 9 9 9 9 8 8
2 2 1 2 2 1 1 1 2 3 2 2 2 2 2 2 2 2 2 2 2 2 2 2 2 2 1 1 1 1 2 2 3 3 2 3 6 9 9 8 9 8 8
3 2 2 2 2 1 0 1 3 3 3 3 3 3 3 2 2 2 2 2 2 2 2 2 3 2 1 1 1 2 2 2 2 2 1 2 3 3 5 7 8 9 8
2 2 2 2 1 0 1 2 2 2 2 2 2 3 2 1 0 1 2 3 3 2 2 2 3 2 3 2 2 2 2 3 3 2 2 3 2 3 3 3 6 8 8
2 2 2 2 1 1 0 1 3 2 2 1 2 2 3 2 1 1 2 3 4 5 5 3 3 4 3 2 2 3 3 3 4 3 3 3 2 2 2 3 7 8 8
2 2 2 2 1 1 1 1 3 3 3 2 2 2 2 2 2 2 3 2 3 3 4 3 3 4 4 3 3 4 4 4 4 3 2 3 2 2 3 2 6 8 9
2 2 2 2 2 1 2 2 2 3 3 2 2 1 1 1 1 2 2 3 3 3 4 5 5 5 6 7 5 3 3 3 4 3 1 2 2 2 2 2 4 7 8
2 2 2 2 2 2 2 2 2 3 3 2 2 1 0 0 2 2 2 3 4 3 4 5 4 5 6 6 7 5 3 3 3 3 2 2 2 2 2 2 2 3 4
Wind_Direction
40 55 31 11 354 68 137 169 182 184 202 225 234 173 158 146 120 144 145 165 169 175 178 183 188 196 196 198 203 203 205 207 205 204 204 204 206 205 204 205 210 211 212
46 68 64 8 359 29 31 90 136 144 181 156 171 184 142 160 167 164 155 166 170 174 179 187 197 202 201 202 205 204 203 204 206 208 208 210 211 208 209 213 212 213 212
54 46 70 29 11 21 34 49 57 67 123 127 193 199 168 168 198 172 165 162 166 177 184 192 202 204 203 202 203 202 204 202 204 207 210 214 216 212 212 215 217 217 216
64 33 60 43 14 14 21 54 60 46 46 189 223 196 156 164 185 183 164 166 171 177 185 188 190 198 198 202 205 204 206 206 206 210 212 213 215 214 215 217 219 219 219
51 37 59 28 355 36 31 19 51 12 331 277 222 182 178 166 181 189 167 171 172 172 166 176 185 189 196 200 201 203 205 207 209 212 217 217 216 214 215 216 218 216 218
74 30 68 30 8 44 42 36 16 341 319 295 288 203 198 187 189 178 176 168 167 172 167 167 177 190 193 196 195 196 201 204 207 211 214 216 217 218 219 219 218 217 216
82 74 31 35 36 62 48 29 8 314 293 303 298 267 206 198 177 167 173 171 168 167 169 167 177 176 184 193 194 192 199 203 205 206 209 214 219 220 221 222 220 219 218
87 93 71 356 44 88 65 17 18 331 322 8 307 308 309 298 283 189 175 176 178 185 191 186 180 179 180 173 186 195 202 207 212 213 214 217 220 223 222 223 222 223 223
115 59 60 25 15 55 80 349 16 349 323 314 45 26 6 317 310 226 201 170 172 182 200 188 186 183 183 175 177 194 199 204 211 217 219 221 223 225 226 224 225 227 227
120 109 86 65 27 34 55 12 48 338 323 321 306 196 171 150 239 305 284 179 173 176 194 204 179 168 172 165 165 171 189 200 208 216 221 224 226 228 229 226 226 229 228
123 112 105 86 80 59 44 23 23 358 353 342 337 334 321 270 242 233 277 277 222 187 189 192 187 167 168 169 169 174 182 192 201 212 222 228 231 232 232 229 230 231 228
139 125 117 89 75 73 50 28 355 10 1 355 341 334 334 327 311 290 276 274 262 230 199 180 179 171 172 169 172 164 177 187 197 209 221 230 233 235 234 233 234 235 234
148 145 143 140 144 170 140 74 319 351 348 332 324 323 326 328 333 330 313 309 312 284 212 206 187 164 170 141 151 170 176 184 191 200 212 223 229 236 239 237 238 239 238
143 149 158 160 163 200 133 331 314 301 326 310 318 325 313 311 316 307 299 299 300 300 267 236 145 140 109 119 156 179 177 181 189 196 204 212 217 221 231 234 235 235 236
156 145 158 166 172 179 261 176 305 307 330 320 316 321 307 305 305 310 304 286 277 294 298 273 292 109 134 134 172 188 174 189 197 201 206 209 211 213 218 222 223 227 227
142 141 163 181 185 190 201 245 254 283 291 284 286 315 313 316 317 313 315 308 290 259 279 316 331 338 16 296 203 220 226 207 209 210 210 211 211 212 215 217 219 226 228
167 165 174 192 202 208 215 247 261 269 280 291 289 281 272 283 303 310 306 307 303 279 268 284 298 311 312 279 244 246 246 216 212 217 213 212 213 213 214 216 220 224 228
192 189 192 209 219 208 228 250 271 280 275 275 278 278 274 266 279 295 298 291 290 278 244 267 279 277 260 251 235 238 258 256 239 221 214 215 215 213 213 216 218 222 227
193 216 204 215 228 219 242 263 271 280 282 280 276 268 263 263 267 278 280 287 286 295 259 253 266 260 262 268 258 258 267 268 268 240 214 214 217 217 216 217 218 220 223
178 199 221 235 237 213 258 296 289 278 281 288 289 288 261 240 247 268 270 284 299 300 289 275 274 269 267 290 275 269 275 270 276 277 253 225 218 220 220 221 221 219 219
192 188 216 236 250 221 266 306 288 273 275 282 290 292 270 242 246 253 272 284 292 290 291 284 280 292 292 321 307 293 289 284 277 261 258 249 220 222 220 223 223 223 219
205 209 215 218 245 295 40 351 331 304 294 297 306 305 291 285 333 237 263 287 285 275 284 291 290 290 292 302 305 301 302 303 293 278 283 270 234 226 227 215 211 209 212
201 206 216 195 161 150 220 322 328 298 286 285 289 293 294 300 318 310 278 272 275 273 267 268 279 283 287 297 301 295 290 286 279 278 280 271 260 255 240 227 192 195 202
209 211 213 190 173 184 197 251 304 272 269 256 259 261 259 300 323 320 288 280 271 273 261 258 264 268 275 276 265 272 278 287 279 271 268 270 273 268 271 223 193 197 202
216 217 212 206 195 189 209 233 295 267 271 276 272 281 241 235 322 319 291 287 287 282 276 271 267 263 259 259 260 270 273 279 289 289 286 276 282 283 268 246 210 203 207
225 229 219 210 205 199 201 215 272 272 275 279 276 254 23 68 274 282 281 285 281 286 292 284 268 259 252 249 246 236 249 266 281 286 287 287 288 299 285 259 211 206 219